Flag for Germany Weather past 2 weeks in Witten, North Rhine-Westphalia, Germany

Now
55 °F

Partly sunny.


Feels Like: 52 °F
Forecast: 52 / 61 °F
Wind: 12 mph from West

Location: Dortmund / Wickede

Current Time: Apr 25, 2015 at 7:08:20 PM

Latest Report: Apr 25, 2015 at 6:20 PM


Visibility: N/A

Pressure: 29.74 "Hg

Humidity: 77%

Dew point: 48 °F

Location of WittenLocation

Historic Weather in Witten — Graph

°F

Witten temperature yesterday

Maximum temperature yesterday: 70 °F (at 3:50 PM)
Minimum temperature yesterday: 41 °F (at 5:50 AM)
Average temperature yesterday: 59 °F

Past Weeks' High & Low Weather Summary

 TemperatureHumidityPressure
High73 °F (Apr 15, 4:20 PM)93% (Apr 16, 8:20 AM)30.45 "Hg (Apr 16, 8:20 AM)
Low34 °F (Apr 18, 5:20 AM)18% (Apr 21, 4:50 PM)29.74 "Hg (Apr 25, 6:20 AM)
Average53 °F57%30.16 "Hg
* Reported Apr 10 5:20 PM — Apr 25 5:50 PM, Witten, Weather by CustomWeather, © 2015

Note: Actual official high and low records may vary slightly from our data, if they occured in-between our weather recording intervals... More about our weather records

Advertising

Witten weather history for previous 24 hours

 ConditionsComfort  
Time TempWeatherWind HumidityBarometerVisibility
5:50 PM
Sat, Apr 25
55 °FLight rain. Partly sunny.9 mph82%29.74 "HgN/A
5:20 PM57 °FPartly sunny.8 mph77%29.74 "HgN/A
4:50 PM57 °FScattered clouds.7 mph77%29.74 "HgN/A
4:20 PM57 °FLight rain. Scattered clouds.7 mph77%29.74 "HgN/A
3:50 PM57 °FLight rain. Scattered clouds.8 mph72%29.74 "HgN/A
3:20 PM57 °FBroken clouds.9 mph67%29.74 "HgN/A
2:50 PM57 °FBroken clouds.8 mph72%29.74 "HgN/A
2:20 PM57 °FScattered clouds.8 mph72%29.77 "HgN/A
1:50 PM57 °FScattered clouds.10 mph72%29.77 "HgN/A
1:20 PM57 °FSunny.12 mph72%29.77 "Hg10 mi
12:50 PM57 °FScattered clouds.14 mph72%29.77 "HgN/A
12:20 PM55 °FScattered clouds.10 mph82%29.77 "HgN/A
11:50 AM55 °FPartly sunny.12 mph82%29.77 "Hg6 mi
11:20 AM54 °FDrizzle. Fog.9 mph82%29.77 "Hg3 mi
10:50 AM54 °FDrizzle. Fog.13 mph82%29.77 "Hg2 mi
10:20 AM55 °FScattered clouds.9 mph77%29.77 "Hg4 mi
9:50 AM55 °FClear.6 mph72%29.77 "Hg4 mi
9:20 AM55 °FClear.6 mph67%29.77 "Hg5 mi
8:50 AM54 °FSunny.7 mph72%29.77 "Hg10 mi
8:20 AM55 °FScattered clouds.8 mph67%29.77 "Hg4 mi
7:50 AM55 °FScattered clouds.10 mph72%29.77 "Hg4 mi
7:20 AM54 °FPartly sunny.7 mph77%29.77 "Hg4 mi
6:50 AM54 °FClear.5 mph77%29.77 "Hg5 mi
6:20 AM52 °FClear.5 mph82%29.74 "Hg10 mi
5:20 AM54 °FClear.5 mph77%29.77 "Hg10 mi
10:50 PM
Fri, Apr 24
54 °FClear.8 mph58%29.80 "Hg10 mi
10:20 PM55 °FClear.8 mph51%29.80 "Hg10 mi
9:50 PM57 °FClear.7 mph48%29.80 "Hg10 mi
9:20 PM59 °FSunny.6 mph45%29.83 "Hg10 mi
8:50 PM59 °FSunny.6 mph45%29.83 "Hg10 mi
8:20 PM61 °FSunny.8 mph42%29.83 "Hg10 mi
7:50 PM63 °FSunny.8 mph42%29.83 "Hg10 mi
7:20 PM61 °FSunny.7 mph45%29.83 "Hg10 mi
Weather by CustomWeather, © 2015

See weather overviewHow to use our weather pages